Location: York
(53.9600°N, 1.0873°W)
Time: 01:19:26
(UTC+01:00)

ISS - Pass Details

Date: 18 July 2025
Orbit: 416 x 425 km, 51.6° (Epoch: 17 April)

Event Time Altitude Azimuth Distance (km) Brightness Sun altitude
Rises 23:15:20 0° 278° (W) 2,379 0.6 -11.2°
Reaches altitude 10° 23:17:40 10° 264° (W) 1,517 -0.7 -11.3°
Maximum altitude 23:20:28 24° 209° (SSW) 937 -2.3 -11.5°
Enters shadow 23:21:54 18° 172° (S) 1,121 -2.2 -11.6°
